Memambetsu, Japan

2:43 PM JST on February 21, 2018 (GMT +0900)
Memanbetsu

Weather History for RJCM - January, 2013

Change the Weather History Date:

Thursday, January 3, 2013

  Actual Average Record
Temperature  
Mean Temperature 19 °F -  
Max Temperature 24 °F 24 °F 41 °F (2005)
Min Temperature 14 °F 9 °F 0 °F (2015)
Degree Days  
Heating Degree Days 46    
Moisture  
Dew Point 16 °F    
Average Humidity 82    
Maximum Humidity 93    
Minimum Humidity 54    
Precipitation  
Precipitation 0.00 in - - ()
Sea Level Pressure  
Sea Level Pressure 29.68 in    
Wind  
Wind Speed 9 mph ()    
Max Wind Speed 21 mph    
Max Gust Speed 31 mph    
Visibility 1.9 miles    
Events Snow    
Averages and records for this station are not official NWS values.
T = Trace of Precipitation, MM = Missing Value Source: Averaged Metar Reports

Daily Weather History Graph

Daily Weather History Graph

Search for Another Location

Airport or City:

Trip Planner

Search our weather history database for the weather conditions in past years. The results will help you decide how hot, cold, wet, or windy it might be!

Date:

Astronomy

Jan. 03, 2013 Rise Set
Actual Time 6:57 AM JST 3:57 PM JST
Civil Twilight 6:25 AM JST 4:30 PM JST
Nautical Twilight 5:48 AM JST 5:06 PM JST
Astronomical Twilight 5:13 AM JST 5:41 PM JST
Moon 10:05 PM JST (1/3) 9:38 AM JST (1/3)
Length of Visible Light 10h 05m
Length of Day
9h 00m
Waning Gibbous, 71% of the Moon is Illuminated
Jan 3
Waning Gibbous
Jan 5
Last Quarter
Jan 12
New
Jan 19
First Quarter
Jan 27
Full

Hourly Weather History & Observations

Time (JST) Temp. Windchill Dew Point Humidity Pressure Visibility Wind Dir Wind Speed Gust Speed Precip Events Conditions
8:00 AM 21.2 °F 14.9 °F 8.6 °F 58% 29.56 in 6.2 mi WSW 4.6 mph - N/A   Scattered Clouds
9:00 AM 23.0 °F 13.1 °F 8.6 °F 54% 29.56 in 6.2 mi WSW 9.2 mph - N/A   Scattered Clouds
9:36 AM 23.0 °F 13.9 °F 15.8 °F 74% 29.56 in - WSW 8.1 mph - N/A Snow Light Snow Showers
9:49 AM 23.0 °F 14.7 °F 17.6 °F 80% 29.56 in 4.3 mi WSW 6.9 mph - N/A Snow Light Snow Showers
10:00 AM 23.0 °F 17.0 °F 17.6 °F 80% 29.56 in 6.2 mi West 4.6 mph - N/A Snow Light Snow Showers
10:34 AM 24.8 °F 16.9 °F 19.4 °F 80% 29.59 in 1.4 mi West 6.9 mph - N/A Snow Light Snow Showers
10:37 AM 23.0 °F 13.9 °F 19.4 °F 86% 29.59 in 0.9 mi West 8.1 mph - N/A Snow Light Snow Showers
10:39 AM 23.0 °F 13.1 °F 19.4 °F 86% 29.59 in 0.6 mi West 9.2 mph 23.0 mph N/A Snow Snow Showers
10:43 AM 23.0 °F 11.1 °F 17.6 °F 80% 29.59 in 0.3 mi WNW 12.7 mph 27.6 mph N/A Snow Snow Showers
11:00 AM 21.2 °F 7.3 °F 17.6 °F 86% 29.59 in 0.1 mi WNW 16.1 mph 31.1 mph N/A Snow Heavy Snow Showers
11:03 AM 21.2 °F 6.8 °F 17.6 °F 86% 29.59 in 0.1 mi WNW 17.3 mph 31.1 mph N/A Snow Heavy Snow Showers
11:25 AM 21.2 °F 7.3 °F 17.6 °F 86% 29.62 in 0.1 mi WNW 16.1 mph 29.9 mph N/A Snow Heavy Snow Showers
11:41 AM 21.2 °F 6.4 °F 17.6 °F 86% 29.62 in 0.1 mi NW 18.4 mph 29.9 mph N/A Snow Snow Showers
12:00 PM 21.2 °F 6.8 °F 17.6 °F 86% 29.65 in 0.1 mi NW 17.3 mph 29.9 mph N/A Snow Snow Showers
12:13 PM 21.2 °F 7.3 °F 17.6 °F 86% 29.65 in 0.2 mi NW 16.1 mph 27.6 mph N/A Snow Snow Showers
12:23 PM 21.2 °F 6.8 °F 17.6 °F 86% 29.65 in 0.3 mi NW 17.3 mph - N/A Snow Snow Showers
1:00 PM 19.4 °F 4.5 °F 17.6 °F 93% 29.68 in 0.3 mi NW 17.3 mph 28.8 mph N/A Snow Snow Showers
1:03 PM 19.4 °F 4.1 °F 15.8 °F 86% 29.68 in 0.3 mi NNW 18.4 mph 29.9 mph N/A Snow Snow Showers
1:11 PM 21.2 °F 5.6 °F 17.6 °F 86% 29.68 in 0.4 mi NNW 20.7 mph - N/A Snow Snow Showers
1:29 PM 21.2 °F 6.0 °F 15.8 °F 80% 29.71 in 0.6 mi NNW 19.6 mph - N/A Snow Light Blowing Snow
1:47 PM 21.2 °F 7.3 °F 17.6 °F 86% 29.71 in 0.7 mi NNW 16.1 mph - N/A Snow Light Blowing Snow
2:00 PM 21.2 °F 7.3 °F 15.8 °F 80% 29.74 in 0.7 mi NNW 16.1 mph - N/A Snow Light Snow Showers
3:00 PM 19.4 °F 6.6 °F 15.8 °F 86% 29.77 in 1.5 mi NNW 12.7 mph - N/A Snow Light Snow Showers
3:30 PM 19.4 °F 7.2 °F 15.8 °F 86% 29.77 in - NNW 11.5 mph - N/A Snow Light Snow Showers
4:00 PM 19.4 °F 7.9 °F 15.8 °F 86% 29.80 in 3.1 mi NNW 10.4 mph - N/A Snow Light Snow Showers
4:19 PM 19.4 °F 7.2 °F 14.0 °F 80% 29.80 in - NNW 11.5 mph - N/A Snow Light Snow Showers
5:00 PM 17.6 °F 9.3 °F 14.0 °F 86% 29.80 in 3.1 mi NW 5.8 mph - N/A Snow Light Snow Showers
6:00 PM 17.6 °F 10.7 °F 12.2 °F 79% 29.80 in 4.3 mi WNW 4.6 mph - N/A Snow Light Snow Showers
6:42 PM 15.8 °F - 12.2 °F 86% 29.83 in - Variable 1.2 mph - N/A Snow Light Snow Showers
7:00 PM 17.6 °F - 14.0 °F 86% 29.83 in 5.0 mi Variable 2.3 mph - N/A Snow Light Snow Showers
7:29 PM 14.0 °F - 10.4 °F 86% 29.83 in - Variable 2.3 mph - N/A Snow Light Snow Showers
8:00 PM 17.6 °F - 14.0 °F 86% 29.83 in 3.1 mi Variable 2.3 mph - N/A Snow Light Snow Showers